Weather History for Sanford, FL

Change the Weather History Date:

Sunday, August 25, 2013

  Actual Average Record
Temperature  
Mean Temperature 80 °F -  
Max Temperature 87 °F 91 °F 96 °F (1968)
Min Temperature 75 °F 72 °F 64 °F (1957)
Cooling Degree Days 16    
Growing Degree Days 30 (Base 50)    
Moisture  
Dew Point 74 °F    
Average Humidity 84    
Maximum Humidity 97    
Minimum Humidity 65    
Precipitation  
Precipitation 0.09 in - - ()
Sea Level Pressure  
Sea Level Pressure 30.15 in    
Wind  
Wind Speed 5 mph (NE)    
Max Wind Speed 16 mph    
Max Gust Speed 23 mph    
Visibility 9 miles    
Events Rain , Thunderstorm    
Averages and records for this station are not official NWS values.
T = Trace of Precipitation, MM = Missing Value Source: NWS Daily Summary

Daily Weather History Graph

Daily Weather History Graph

Search for Another Location

Airport:

Trip Planner

Search our weather history database for the weather conditions in past years. The results will help you decide how hot, cold, wet, or windy it might be!

Date:

Astronomy

Aug. 25, 2013 Rise Set
Actual Time 6:59 AM EDT 7:53 PM EDT
Civil Twilight 6:35 AM EDT 8:18 PM EDT
Nautical Twilight 6:06 AM EDT 8:46 PM EDT
Astronomical Twilight 5:37 AM EDT 9:16 PM EDT
Moon 10:54 PM EDT (8/25) 11:31 AM EDT (8/25)
Length of Visible Light 13h 43m
Length of Day
12h 54m
Waning Gibbous, 76% of the Moon is Illuminated
Aug 25
Waning Gibbous
Aug 28
Last Quarter
Sep 5
New
Sep 12
First Quarter
Sep 19
Full

Hourly Weather History & Observations

Time (EDT) Temp. Heat Index Dew Point Humidity Pressure Visibility Wind Dir Wind Speed Gust Speed Precip Events Conditions
12:53 AM 75.9 °F - 75.0 °F 97% 30.13 in 10.0 mi Calm Calm - N/A   Clear
1:53 AM 75.0 °F - 73.9 °F 96% 30.12 in 10.0 mi Calm Calm - N/A   Clear
2:53 AM 75.0 °F - 73.9 °F 96% 30.11 in 10.0 mi North 4.6 mph - N/A   Clear
3:53 AM 75.9 °F - 75.0 °F 97% 30.11 in 10.0 mi North 4.6 mph - N/A   Clear
4:53 AM 75.0 °F - 73.9 °F 96% 30.11 in 10.0 mi North 5.8 mph - N/A   Clear
5:53 AM 75.9 °F - 73.9 °F 94% 30.12 in 10.0 mi NNE 3.5 mph - N/A   Clear
6:53 AM 75.9 °F - 73.9 °F 94% 30.13 in 10.0 mi NNE 4.6 mph - N/A   Clear
7:53 AM 75.9 °F - 75.0 °F 97% 30.15 in 10.0 mi NNE 5.8 mph - N/A   Clear
8:53 AM 79.0 °F - 75.9 °F 90% 30.15 in 10.0 mi NE 5.8 mph - N/A   Clear
9:53 AM 82.0 °F 89.4 °F 75.9 °F 82% 30.17 in 10.0 mi ENE 6.9 mph - N/A   Scattered Clouds
10:13 AM 82.4 °F 89.5 °F 75.2 °F 79% 30.17 in 10.0 mi NE 6.9 mph - N/A   Mostly Cloudy
10:53 AM 84.0 °F 91.9 °F 75.0 °F 74% 30.18 in 10.0 mi ENE 8.1 mph - N/A   Mostly Cloudy
11:16 AM 84.2 °F 90.9 °F 73.4 °F 70% 30.18 in 10.0 mi East 8.1 mph - N/A   Scattered Clouds
11:53 AM 84.9 °F 92.1 °F 73.9 °F 69% 30.18 in 10.0 mi NNE 11.5 mph 21.9 mph N/A   Scattered Clouds
12:03 PM 78.8 °F - 73.4 °F 83% 30.18 in 2.5 mi NNE 16.1 mph 23.0 mph 0.03 in Rain Rain
12:05 PM 77.0 °F - 73.4 °F 89% 30.19 in 5.0 mi NNE 12.7 mph 23.0 mph 0.03 in Rain Heavy Rain
12:14 PM 75.2 °F - 73.4 °F 94% 30.18 in 5.0 mi North 5.8 mph - N/A Rain , Thunderstorm Heavy Thunderstorms and Rain
12:45 PM 78.8 °F - 73.4 °F 83% 30.17 in 10.0 mi NNE 4.6 mph - 0.09 in   Overcast
12:53 PM 80.1 °F 84.2 °F 73.0 °F 79% 30.17 in 10.0 mi NE 5.8 mph - 0.09 in   Mostly Cloudy
1:53 PM 86.0 °F 93.8 °F 73.9 °F 67% 30.16 in 10.0 mi East 10.4 mph - N/A   Partly Cloudy
2:53 PM 84.0 °F 89.0 °F 71.1 °F 65% 30.13 in 10.0 mi ENE 8.1 mph - 0.00 in   Partly Cloudy
3:53 PM 82.9 °F 88.0 °F 72.0 °F 69% 30.12 in 10.0 mi East 6.9 mph - N/A   Partly Cloudy
4:53 PM 82.9 °F 89.4 °F 73.9 °F 74% 30.10 in 10.0 mi ENE 9.2 mph - N/A   Clear
5:53 PM 82.9 °F 89.4 °F 73.9 °F 74% 30.11 in 10.0 mi NE 10.4 mph - N/A   Clear
6:53 PM 82.0 °F 86.7 °F 72.0 °F 71% 30.11 in 10.0 mi NE 9.2 mph - N/A   Partly Cloudy
7:53 PM 80.1 °F 84.2 °F 73.0 °F 79% 30.13 in 10.0 mi East 3.5 mph - N/A   Clear
8:53 PM 78.1 °F - 73.0 °F 84% 30.14 in 10.0 mi ENE 3.5 mph - N/A   Clear
9:53 PM 77.0 °F - 73.9 °F 90% 30.16 in 10.0 mi NNE 4.6 mph - N/A   Clear
10:53 PM 78.1 °F - 73.9 °F 87% 30.16 in 10.0 mi NNW 4.6 mph - N/A   Clear
11:53 PM 77.0 °F - 73.9 °F 90% 30.17 in 10.0 mi NNE 5.8 mph - N/A   Clear